Wind_Speed
10 10 10 9 9 9 8 8 7 7 6 6 6 6 6 6 5 4 4 4 3 3 3 3 3 3 3 3 3 3 3 3 3 3 3 4 4 4 4 4 5 5 5
11 11 10 10 10 9 9 8 8 7 7 6 6 7 7 7 6 5 5 5 4 4 4 4 4 4 4 3 4 4 3 3 3 3 4 4 5 5 5 5 5 5 6
11 11 11 11 11 10 10 9 9 9 8 8 7 7 7 7 7 6 6 5 5 4 4 5 5 5 4 4 4 4 4 4 4 4 4 4 4 5 5 5 5 6 6
12 11 11 11 11 11 10 10 10 10 9 9 8 8 8 7 7 7 6 6 5 5 5 5 5 5 5 5 5 4 4 4 5 5 5 5 5 6 6 6 6 6 7
13 13 12 12 12 12 11 10 10 10 10 9 9 9 9 8 7 7 7 7 6 6 5 6 6 6 6 6 6 5 5 5 5 5 6 6 6 6 7 7 6 7 7
14 13 13 13 13 13 12 12 11 11 11 10 9 9 9 9 8 8 7 7 7 7 6 6 6 6 6 6 6 6 6 6 5 6 6 6 7 7 7 7 7 8 8
14 14 14 14 14 14 13 13 12 12 11 10 10 10 10 10 9 9 9 8 8 8 7 7 7 7 7 6 6 7 6 6 6 7 7 7 8 8 8 8 9 9 9
13 14 15 14 14 14 14 14 13 13 12 12 11 11 11 10 10 10 9 9 10 9 9 8 8 8 7 7 8 7 7 7 7 7 8 8 8 9 9 9 9 10 10
14 14 15 15 15 14 14 14 14 14 13 13 12 12 12 11 11 11 10 10 10 10 10 10 9 9 8 8 8 8 8 8 8 8 8 8 9 9 9 10 10 11 11
13 13 14 15 15 15 15 15 14 14 14 13 13 13 13 12 12 12 11 11 11 11 11 11 10 10 10 10 9 9 9 9 9 9 9 10 10 10 10 11 11 12 13
14 14 15 15 15 16 16 16 15 14 14 14 14 14 14 13 13 13 12 12 12 12 12 11 11 11 11 11 11 11 10 10 10 10 11 11 11 11 12 13 13 14 15
14 14 15 15 16 16 16 16 15 15 15 14 14 14 14 14 13 13 13 12 12 12 12 12 12 12 12 12 12 12 12 12 12 12 12 12 12 13 14 14 15 16 16
14 14 15 15 15 16 16 16 16 15 15 15 14 14 14 14 14 14 14 13 13 13 13 13 13 13 13 13 14 14 14 14 13 13 13 13 14 14 15 16 16 16 17
14 15 15 15 15 15 15 15 15 16 16 15 15 15 15 14 15 15 14 14 14 14 14 14 14 14 14 14 14 15 15 15 14 14 14 15 15 16 17 17 18 18 19
15 15 16 16 15 16 16 16 17 17 16 16 15 15 16 15 15 16 16 15 15 15 15 15 15 15 15 15 16 16 16 16 15 16 16 17 17 18 18 18 19 20 21
15 15 16 16 16 17 17 17 17 18 17 17 16 16 16 16 16 17 16 16 16 16 16 15 16 16 17 17 17 17 17 17 17 17 17 18 19 19 19 20 21 22 23
15 15 15 16 17 16 17 16 17 18 18 18 17 17 17 17 17 17 16 16 17 17 16 16 17 17 17 17 18 18 18 19 19 19 20 20 20 21 21 22 23 24 25
15 16 16 16 16 17 17 17 17 18 18 18 18 18 18 18 18 18 18 18 17 17 17 17 17 17 17 18 18 19 19 20 20 20 21 21 21 22 23 24 24 25 27
16 16 17 17 17 17 17 18 18 18 18 18 19 19 19 19 19 19 19 18 18 18 18 17 17 17 18 18 19 20 20 20 20 21 21 22 23 24 25 26 26 27 28
17 18 17 17 17 17 17 17 18 18 18 18 18 19 19 19 18 19 19 19 18 18 17 17 17 18 19 19 19 19 20 20 20 21 22 23 24 26 27 27 28 30 31
18 18 18 17 17 16 16 16 17 17 17 18 18 18 18 18 18 18 18 18 18 18 18 18 18 19 19 20 20 20 20 20 21 22 23 25 26 27 28 29 30 32 33
18 18 18 18 18 17 16 16 16 17 17 17 17 18 18 18 18 18 19 19 20 20 19 19 19 19 20 21 21 21 22 22 23 24 25 26 28 29 30 31 32 34 35
19 19 19 19 19 18 17 17 17 17 17 17 17 17 17 17 18 19 19 19 20 19 19 19 20 21 21 22 22 22 23 24 25 26 27 28 29 31 32 33 35 36 37
19 19 19 19 19 19 19 18 18 18 18 18 17 17 18 18 19 19 19 20 20 20 20 20 21 22 22 22 23 23 24 26 26 27 28 29 31 32 33 34 35 36 37
19 19 19 20 20 20 19 19 19 19 18 18 18 19 19 19 19 20 21 21 20 20 20 21 22 22 22 23 24 24 25 26 27 28 29 31 32 33 34 35 36 37 38
20 19 20 20 21 21 20 20 20 19 19 19 19 19 20 21 20 20 20 20 21 22 22 22 22 23 24 24 25 25 26 28 29 30 30 31 32 33 34 36 37 38 39
Wind_Direction
224 220 220 221 220 220 222 223 224 224 230 231 228 230 233 232 233 238 249 252 258 269 276 288 294 298 301 310 316 321 324 328 335 336 336 337 342 345 343 336 332 329 328
226 225 224 224 222 221 223 227 227 229 231 233 235 233 232 235 235 237 245 249 259 267 277 284 288 291 294 300 303 306 311 312 317 323 325 327 325 328 334 335 331 326 325
226 224 225 226 224 225 227 228 229 229 230 232 234 235 235 239 238 239 243 250 262 271 279 283 282 280 284 291 297 297 302 305 308 314 314 316 316 322 325 326 326 325 323
228 227 226 226 222 225 226 227 229 230 230 232 234 238 243 243 243 245 246 253 259 266 276 280 279 278 281 287 292 292 292 294 302 306 309 308 306 309 313 317 323 323 322
229 229 226 227 226 227 228 229 230 230 231 235 239 241 243 244 246 249 253 254 254 260 269 277 279 279 281 284 288 291 291 291 295 300 305 307 306 309 309 311 314 317 317
230 228 228 230 230 230 230 230 230 231 234 236 240 243 243 245 248 250 254 257 254 260 268 272 277 275 275 278 284 288 296 296 298 301 305 306 308 311 310 311 313 313 314
230 230 231 233 232 229 230 231 233 235 237 238 241 243 245 247 249 254 256 257 257 261 267 271 273 274 274 275 281 286 290 297 303 304 304 303 303 305 306 308 310 310 311
232 235 234 233 230 229 230 231 235 238 240 240 242 244 245 248 252 254 256 258 260 261 262 266 267 270 275 278 281 282 283 288 294 299 303 303 302 303 303 304 306 308 309
239 240 238 234 233 231 231 232 236 239 241 241 242 244 247 249 251 252 256 260 262 261 260 261 263 267 271 277 281 282 284 288 292 293 295 298 300 301 302 302 303 305 307
241 242 241 240 238 234 234 234 236 240 241 242 243 247 249 251 251 252 255 258 261 260 258 259 263 265 269 275 281 284 282 284 287 290 292 295 298 301 302 301 302 304 305
244 244 242 241 238 236 236 236 238 241 242 243 243 246 248 250 251 252 253 257 260 262 261 260 264 267 269 272 277 280 281 283 287 289 290 292 295 297 301 302 300 302 303
243 244 244 243 239 237 238 237 238 242 244 243 243 245 247 248 250 251 254 257 261 263 263 264 267 269 271 273 276 278 281 281 286 289 291 294 296 298 300 301 302 301 301
247 247 245 243 239 238 238 238 240 241 243 243 244 246 247 249 251 251 256 260 262 261 262 264 266 269 272 273 275 277 278 281 284 286 290 294 297 298 299 300 302 303 302
251 249 245 243 239 238 238 237 239 240 242 243 245 246 247 250 253 254 256 260 262 262 263 263 265 268 271 274 275 276 277 280 283 285 289 293 295 297 299 300 302 304 305
253 251 246 242 240 240 239 239 239 240 242 242 244 247 249 252 254 255 257 260 263 264 262 262 265 268 270 273 275 276 277 278 282 285 289 292 294 297 298 300 301 303 304
256 254 249 244 243 242 241 242 241 242 242 244 247 250 250 252 255 256 259 262 264 265 263 262 266 270 272 274 275 277 278 279 281 285 288 292 294 296 297 298 300 301 302
255 254 250 246 243 243 242 243 244 243 244 245 248 248 249 253 256 257 261 263 265 265 266 267 270 271 271 273 276 278 279 280 281 284 286 289 292 295 298 299 299 300 300
256 253 249 248 246 245 245 243 244 245 246 246 248 249 252 255 258 259 262 264 264 265 269 270 270 270 272 274 276 278 280 281 282 283 285 288 292 295 296 297 299 301 302
253 254 250 248 246 247 245 244 244 244 245 249 251 252 254 257 258 259 261 263 266 269 272 271 270 272 274 278 279 280 280 280 281 283 286 290 293 295 296 297 299 300 300
253 255 252 250 249 247 246 247 246 246 247 250 252 254 254 257 259 260 262 265 267 270 272 273 272 274 278 280 282 283 282 282 283 285 288 291 294 296 297 297 298 299 301
254 255 255 252 252 250 249 248 246 245 248 251 254 257 258 259 260 260 261 263 266 269 272 274 275 278 282 282 283 283 283 284 284 286 289 291 294 296 297 297 299 300 301
254 255 254 253 254 255 254 253 250 249 251 255 257 257 258 258 257 257 259 262 267 269 272 274 276 279 282 283 284 284 284 284 287 289 291 292 294 295 296 297 298 300 301
253 254 254 253 253 253 253 254 252 252 255 258 257 256 257 257 257 260 262 265 270 270 272 276 279 281 282 284 284 285 286 286 289 291 292 294 295 295 296 298 299 300 301
251 252 253 252 251 250 251 250 250 252 255 257 256 256 257 260 262 264 267 270 273 272 274 278 280 282 283 284 284 285 287 289 291 292 294 296 298 298 298 299 301 302 303
250 250 252 251 250 249 249 249 250 252 254 256 255 256 258 260 262 266 268 270 272 275 278 281 282 282 285 286 286 288 290 293 293 293 295 297 298 299 300 301 302 303 304
251 250 251 250 249 248 249 251 252 252 253 254 256 256 258 260 263 266 268 270 273 275 278 282 284 285 287 287 288 289 291 295 295 295 296 298 299 300 301 303 304 304 305
Height
5861 5862 5863 5864 5866 5867 5868 5869 5870 5871 5872 5872 5873 5874 5874 5875 5875 5876 5876 5876 5876 5876 5876 5875 5875 5875 5875 5875 5874 5874 5873 5872 5872 5871 5871 5870 5869 5869 5868 5867 5866 5865 5864
5859 5860 5861 5863 5864 5865 5866 5867 5868 5869 5870 5871 5872 5873 5873 5874 5874 5875 5875 5875 5875 5875 5875 5875 5874 5874 5874 5874 5873 5873 5872 5872 5871 5871 5870 5870 5869 5868 5867 5866 5865 5864 5863
5857 5858 5859 5861 5862 5864 5865 5866 5867 5868 5869 5870 5871 5871 5872 5872 5873 5873 5874 5874 5874 5874 5874 5874 5873 5873 5873 5873 5872 5872 5871 5871 5870 5870 5870 5869 5868 5867 5866 5865 5864 5863 5862
5856 5857 5858 5859 5860 5862 5863 5864 5865 5866 5867 5868 5869 5870 5871 5871 5871 5872 5872 5872 5872 5873 5873 5872 5872 5872 5872 5871 5871 5870 5870 5870 5869 5869 5868 5868 5867 5866 5865 5865 5864 5863 5861
5854 5855 5856 5857 5858 5860 5861 5862 5863 5864 5865 5866 5867 5868 5869 5869 5870 5870 5871 5871 5871 5871 5871 5871 5871 5871 5870 5870 5869 5869 5869 5868 5868 5868 5867 5866 5866 5865 5864 5863 5863 5862 5860
5852 5853 5854 5855 5856 5858 5859 5860 5861 5862 5863 5864 5865 5866 5867 5868 5868 5869 5869 5869 5870 5870 5870 5870 5869 5869 5869 5869 5868 5868 5868 5867 5867 5866 5866 5865 5864 5864 5863 5862 5861 5860 5859
5849 5850 5852 5853 5854 5855 5856 5858 5859 5860 5861 5862 5863 5864 5865 5866 5866 5867 5867 5868 5868 5868 5868 5868 5868 5868 5867 5867 5867 5867 5866 5866 5865 5865 5864 5864 5863 5862 5861 5860 5859 5858 5858
5847 5848 5849 5850 5851 5852 5854 5855 5856 5858 5859 5860 5861 5862 5863 5863 5864 5865 5865 5865 5866 5866 5866 5866 5866 5866 5866 5866 5865 5865 5865 5864 5864 5863 5863 5862 5861 5860 5860 5859 5858 5857 5856
5844 5845 5846 5847 5848 5850 5851 5852 5854 5855 5856 5857 5858 5859 5860 5861 5862 5862 5863 5863 5863 5863 5864 5864 5864 5864 5864 5864 5864 5864 5863 5863 5862 5862 5861 5860 5859 5858 5858 5857 5856 5855 5854
5841 5842 5843 5844 5845 5847 5848 5850 5851 5852 5853 5854 5855 5856 5857 5858 5859 5859 5860 5860 5861 5861 5861 5861 5862 5862 5862 5862 5862 5861 5861 5860 5860 5860 5859 5858 5857 5856 5855 5854 5853 5852 5851
5838 5839 5840 5841 5842 5844 5845 5846 5848 5849 5850 5851 5852 5853 5854 5855 5856 5857 5857 5857 5858 5858 5858 5859 5859 5859 5860 5859 5859 5859 5858 5858 5857 5857 5856 5855 5854 5854 5853 5851 5850 5849 5848
5835 5836 5837 5838 5839 5840 5842 5843 5844 5846 5847 5848 5849 5850 5851 5852 5853 5854 5854 5855 5855 5855 5856 5856 5856 5856 5856 5856 5856 5856 5856 5855 5855 5854 5853 5852 5851 5850 5849 5848 5847 5845 5844
5832 5833 5833 5834 5835 5837 5838 5840 5841 5842 5843 5845 5846 5847 5848 5849 5850 5850 5851 5852 5852 5852 5852 5853 5853 5853 5853 5853 5853 5853 5852 5852 5851 5851 5850 5849 5848 5847 5846 5844 5843 5841 5840
5829 5829 5830 5831 5832 5833 5835 5836 5837 5839 5840 5841 5842 5843 5844 5845 5846 5847 5848 5848 5848 5848 5849 5849 5849 5849 5849 5849 5849 5849 5848 5848 5848 5847 5846 5845 5844 5843 5842 5841 5839 5837 5836
5825 5826 5826 5827 5828 5830 5831 5832 5834 5835 5836 5837 5839 5840 5841 5842 5843 5843 5844 5844 5844 5845 5845 5845 5846 5845 5845 5845 5845 5845 5844 5844 5844 5843 5842 5841 5840 5839 5837 5836 5834 5833 5831
5821 5822 5822 5823 5824 5825 5827 5828 5830 5831 5833 5834 5835 5836 5837 5838 5839 5839 5840 5840 5841 5841 5841 5841 5841 5841 5841 5841 5841 5840 5840 5839 5839 5838 5838 5837 5835 5834 5833 5831 5829 5828 5825
5817 5818 5819 5819 5820 5821 5823 5824 5825 5827 5828 5830 5831 5832 5833 5834 5835 5835 5836 5836 5836 5837 5837 5837 5837 5837 5837 5836 5836 5835 5835 5834 5834 5833 5833 5832 5831 5829 5828 5826 5824 5822 5819
5813 5814 5814 5815 5816 5817 5818 5820 5821 5822 5824 5825 5826 5828 5829 5829 5830 5831 5832 5832 5832 5832 5832 5832 5832 5832 5832 5831 5831 5830 5829 5829 5828 5828 5827 5826 5825 5823 5822 5820 5818 5815 5813
5809 5810 5810 5811 5812 5813 5814 5816 5817 5818 5820 5821 5822 5823 5824 5825 5826 5826 5827 5827 5828 5828 5828 5827 5827 5827 5827 5826 5826 5825 5823 5823 5822 5822 5821 5820 5819 5817 5816 5814 5812 5809 5806
5805 5805 5806 5806 5807 5808 5809 5811 5812 5814 5815 5817 5818 5819 5820 5820 5821 5822 5822 5823 5823 5823 5823 5823 5823 5822 5822 5821 5820 5819 5818 5817 5816 5816 5815 5814 5813 5811 5809 5807 5805 5802 5799
5800 5800 5801 5802 5803 5804 5805 5806 5808 5809 5811 5812 5813 5814 5815 5816 5817 5817 5818 5818 5818 5819 5819 5818 5818 5818 5817 5816 5815 5814 5813 5812 5811 5810 5809 5808 5806 5804 5802 5799 5797 5794 5791
5795 5796 5797 5798 5799 5800 5801 5802 5803 5805 5806 5807 5808 5809 5810 5811 5812 5813 5813 5813 5813 5813 5813 5813 5813 5813 5812 5811 5810 5809 5808 5807 5806 5804 5803 5801 5799 5797 5794 5792 5789 5785 5782
5790 5791 5792 5793 5794 5795 5796 5798 5799 5800 5801 5802 5803 5804 5805 5806 5807 5807 5808 5808 5808 5808 5808 5808 5808 5807 5806 5805 5804 5803 5802 5801 5799 5798 5796 5794 5792 5789 5786 5783 5780 5776 5772
5785 5786 5787 5788 5789 5790 5792 5793 5794 5796 5797 5798 5799 5800 5800 5801 5802 5803 5803 5803 5803 5803 5803 5803 5802 5802 5801 5799 5798 5797 5796 5794 5792 5791 5788 5786 5783 5780 5777 5774 5770 5766 5762
5780 5780 5782 5783 5784 5785 5786 5788 5789 5791 5792 5793 5794 5795 5796 5796 5797 5797 5797 5798 5798 5798 5798 5797 5796 5796 5795 5793 5792 5790 5789 5787 5785 5783 5781 5778 5775 5772 5768 5765 5761 5757 5753
5774 5775 5776 5777 5778 5780 5781 5782 5784 5785 5786 5787 5788 5789 5790 5791 5791 5791 5792 5792 5792 5792 5791 5791 5790 5789 5788 5787 5785 5784 5782 5780 5778 5775 5772 5770 5766 5763 5759 5755 5751 5747 5743